EDT,Max TemperatureF,Mean TemperatureF,Min TemperatureF,Max Dew PointF,MeanDew PointF,Min DewpointF,Max Humidity, Mean Humidity, Min Humidity, Max Sea Level PressureIn, Mean Sea Level PressureIn, Min Sea Level PressureIn, Max VisibilityMiles, Mean VisibilityMiles, Min VisibilityMiles, Max Wind SpeedMPH, Mean Wind SpeedMPH, Max Gust SpeedMPH,PrecipitationIn, CloudCover, Events, WindDirDegrees
2013-8-1,78,71,63,67,63,58,100,79,58,29.93,29.84,29.79,10,6,1,22,7,28,0.37,7,Rain,255
2013-8-2,77,68,58,62,59,54,97,72,46,29.91,29.88,29.85,10,8,4,21,5,26,0.26,5,Rain-Thunderstorm,227
2013-8-3,76,69,61,63,58,51,100,72,43,29.94,29.90,29.83,10,9,2,17,9,23,T,6,Rain,269
2013-8-4,72,64,55,58,53,48,87,67,47,30.07,30.00,29.94,10,10,10,20,10,25,T,4,,297
2013-8-5,74,63,51,57,52,48,100,71,41,30.13,30.08,30.04,10,10,10,10,5,17,0.00,4,,254
2013-8-6,80,67,54,60,55,52,100,70,40,30.08,30.04,30.00,10,10,10,10,5,,0.00,4,,192
2013-8-7,82,74,66,66,62,59,79,69,58,30.00,29.95,29.88,10,10,10,20,10,26,T,6,,190
2013-8-8,84,76,68,72,68,63,93,78,63,29.97,29.95,29.92,10,9,1,16,5,20,0.46,6,Rain-Thunderstorm,176
2013-8-9,80,72,63,70,66,58,100,77,54,29.94,29.88,29.87,10,7,2,14,5,18,0.57,7,Rain,302
2013-8-10,72,65,57,61,54,48,93,69,44,30.11,30.05,29.95,10,10,10,16,7,24,0.00,3,,300
2013-8-11,76,65,53,57,54,51,93,68,43,30.15,30.11,30.05,10,10,9,14,4,20,0.00,3,,272
2013-8-12,77,69,61,62,59,57,90,70,50,30.06,29.99,29.87,10,10,10,12,4,15,T,7,,221
2013-8-13,74,67,59,66,59,47,100,77,53,29.88,29.81,29.76,10,9,2,21,10,28,0.26,7,Rain,267
2013-8-14,69,61,53,55,50,47,93,69,45,30.10,29.96,29.86,10,10,4,22,11,29,0.04,6,Rain,284
2013-8-15,76,63,49,52,49,46,93,66,38,30.15,30.12,30.09,10,10,10,21,8,26,0.00,2,,248
2013-8-16,77,65,52,58,53,50,93,68,43,30.22,30.18,30.13,10,10,10,10,4,20,0.00,2,,250
2013-8-17,81,68,55,59,56,53,93,68,42,30.32,30.28,30.24,10,10,7,12,5,15,0.00,3,,203
2013-8-18,81,69,57,61,57,54,93,68,42,30.27,30.21,30.12,10,10,10,8,3,12,0.00,6,,241
2013-8-19,82,71,59,63,60,57,93,69,45,30.13,30.09,30.04,10,10,7,10,6,15,0.00,3,,248
2013-8-20,84,72,59,63,59,57,90,67,43,30.14,30.11,30.07,10,10,6,16,8,23,0.00,0,,238
2013-8-21,87,75,62,65,62,59,93,67,40,30.18,30.12,30.04,10,9,6,14,6,20,0.00,2,,232
2013-8-22,86,76,65,70,64,54,87,72,57,30.04,29.96,29.91,10,9,7,21,9,26,T,5,Rain-Thunderstorm,261
2013-8-23,74,65,56,59,55,49,93,67,41,30.23,30.11,30.01,10,10,10,14,5,18,0.00,2,,34
2013-8-24,76,64,51,56,50,45,96,65,33,30.37,30.33,30.24,10,10,10,12,4,17,0.00,2,,290
2013-8-25,84,69,53,61,54,51,93,63,32,30.36,30.27,30.14,10,10,8,16,7,21,0.07,5,Rain,240
2013-8-26,79,72,65,70,67,61,93,81,68,30.13,30.01,29.94,10,7,2,22,9,31,0.47,8,Rain-Thunderstorm,251
2013-8-27,84,76,67,72,69,66,100,83,65,29.96,29.93,29.89,10,4,0,10,4,12,0.00,7,Fog,266
2013-8-28,82,76,69,72,69,68,100,83,65,29.96,29.89,29.86,10,8,4,16,6,20,0.10,5,Rain,78
2013-8-29,84,74,64,72,66,63,100,79,58,30.05,30.02,29.97,10,6,0,13,4,18,0.00,2,Fog,318
2013-8-30,86,75,64,68,66,63,100,76,51,30.01,29.91,29.77,10,9,6,13,5,15,T,5,Fog,232
2013-8-31,82,76,69,71,69,67,97,80,63,29.87,29.78,29.73,10,9,6,16,6,20,0.10,7,Rain-Thunderstorm,301